Silver Bay, MN

1:36 AM CDT on May 26, 2018 (GMT -0500)
Silver Bay Municipal

Weather History for KBFW - February, 2013

Change the Weather History Date:

Friday, February 15, 2013

  Actual Average Record
Temperature  
Mean Temperature 4 °F -  
Max Temperature 17 °F 26 °F 41 °F (2011)
Min Temperature -9 °F 3 °F -23 °F (1997)
Degree Days  
Heating Degree Days 61    
Moisture  
Dew Point -8 °F    
Average Humidity 56    
Maximum Humidity 78    
Minimum Humidity 30    
Precipitation  
Precipitation 0.00 in - - ()
Sea Level Pressure  
Sea Level Pressure 30.12 in    
Wind  
Wind Speed 2 mph (NNW)    
Max Wind Speed 9 mph    
Max Gust Speed 18 mph    
Visibility 10 miles    
Events      
Averages and records for this station are not official NWS values.
T = Trace of Precipitation, MM = Missing Value Source: NWS Daily Summary

Daily Weather History Graph

Daily Weather History Graph

Search for Another Location

Airport or City:

Astronomy

Feb. 15, 2013 Rise Set
Actual Time 7:10 AM CST 5:30 PM CST
Civil Twilight 6:38 AM CST 6:01 PM CST
Nautical Twilight 6:02 AM CST 6:37 PM CST
Astronomical Twilight 5:27 AM CST 7:12 PM CST
Moon 9:20 AM CST (2/15) 11:59 PM CST (2/15)
Length of Visible Light 11h 22m
Length of Day
10h 19m
Waxing Crescent, 30% of the Moon is Illuminated
Feb 15
Waxing Crescent
Feb 17
First Quarter
Feb 25
Full
Mar 4
Last Quarter
Mar 11
New

Hourly Weather History & Observations

Time (CST) Temp. Windchill Dew Point Humidity Pressure Visibility Wind Dir Wind Speed Gust Speed Precip Events Conditions
12:13 AM 10.4 °F - -2.2 °F 57% 30.04 in 10.0 mi Calm Calm - N/A   Overcast
12:33 AM 10.4 °F 4.0 °F -2.2 °F 57% 30.04 in 10.0 mi NW 3.5 mph - N/A   Overcast
12:53 AM 10.4 °F - -2.2 °F 57% 30.04 in 10.0 mi Calm Calm - N/A   Overcast
1:13 AM 10.4 °F - -2.2 °F 57% 30.04 in 10.0 mi Calm Calm - N/A   Overcast
1:33 AM 10.4 °F - -2.2 °F 57% 30.05 in 10.0 mi Calm Calm - N/A   Overcast
1:53 AM 10.4 °F - -2.2 °F 57% 30.05 in 10.0 mi Calm Calm - N/A   Overcast
2:13 AM 10.4 °F - -2.2 °F 57% 30.05 in 10.0 mi Calm Calm - N/A   Overcast
2:33 AM 10.4 °F - -2.2 °F 57% 30.05 in 10.0 mi Calm Calm - N/A   Overcast
2:53 AM 8.6 °F - -2.2 °F 62% 30.05 in 10.0 mi Calm Calm - N/A   Scattered Clouds
3:13 AM 8.6 °F - -2.2 °F 62% 30.05 in 10.0 mi Calm Calm - N/A   Scattered Clouds
3:33 AM 6.8 °F - -2.2 °F 67% 30.05 in 10.0 mi Calm Calm - N/A   Scattered Clouds
3:53 AM 6.8 °F - -2.2 °F 67% 30.06 in 10.0 mi Calm Calm - N/A   Clear
4:13 AM 5.0 °F - -4.0 °F 66% 30.06 in 10.0 mi Calm Calm - N/A   Clear
4:33 AM 3.2 °F - -4.0 °F 72% 30.07 in 10.0 mi Calm Calm - N/A   Clear
4:53 AM 3.2 °F - -4.0 °F 72% 30.07 in 10.0 mi Calm Calm - N/A   Clear
5:13 AM 3.2 °F -4.2 °F -4.0 °F 72% 30.08 in 10.0 mi NW 3.5 mph - N/A   Clear
5:33 AM 3.2 °F - -4.0 °F 72% 30.09 in 10.0 mi Calm Calm - N/A   Clear
5:53 AM 3.2 °F -4.2 °F -4.0 °F 72% 30.09 in 10.0 mi NNW 3.5 mph - N/A   Clear
6:13 AM 1.4 °F -6.2 °F -5.8 °F 72% 30.10 in 10.0 mi NNW 3.5 mph - N/A   Clear
6:33 AM 1.4 °F -6.2 °F -5.8 °F 72% 30.10 in 10.0 mi NNW 3.5 mph - N/A   Clear
6:53 AM 1.4 °F -6.2 °F -5.8 °F 72% 30.11 in 10.0 mi NNW 3.5 mph - N/A   Clear
7:13 AM -0.4 °F -8.3 °F -5.8 °F 78% 30.12 in 10.0 mi NW 3.5 mph - N/A   Clear
7:33 AM -0.4 °F - -7.6 °F 72% 30.13 in 10.0 mi Calm Calm - N/A   Clear
7:53 AM 1.4 °F - -5.8 °F 72% 30.13 in 10.0 mi Calm Calm - N/A   Clear
8:14 AM 3.2 °F -7.8 °F -5.8 °F 66% 30.13 in 10.0 mi NNW 5.8 mph - N/A   Clear
8:33 AM 5.0 °F -4.1 °F -7.6 °F 56% 30.14 in 10.0 mi North 4.6 mph - N/A   Clear
8:53 AM 6.8 °F - -7.6 °F 52% 30.14 in 10.0 mi Calm Calm - N/A   Clear
9:13 AM 8.6 °F -3.7 °F -7.6 °F 48% 30.15 in 10.0 mi North 8.1 mph - N/A   Clear
9:33 AM 8.6 °F 2.0 °F -7.6 °F 48% 30.15 in 10.0 mi NNW 3.5 mph - N/A   Clear
9:53 AM 10.4 °F -0.4 °F -7.6 °F 44% 30.15 in 10.0 mi NNW 6.9 mph - N/A   Clear
10:13 AM 12.2 °F 1.7 °F -7.6 °F 41% 30.15 in 10.0 mi NNW 6.9 mph - N/A   Clear
10:33 AM 12.2 °F 2.9 °F -7.6 °F 41% 30.15 in 10.0 mi NNW 5.8 mph - N/A   Clear
10:53 AM 15.8 °F 7.2 °F -7.6 °F 35% 30.15 in 10.0 mi NW 5.8 mph - N/A   Clear
11:13 AM 15.8 °F 10.2 °F -9.4 °F 32% 30.15 in 10.0 mi North 3.5 mph - N/A   Clear
11:53 AM 17.6 °F 8.2 °F -9.4 °F 30% 30.15 in 10.0 mi North 6.9 mph - N/A   Clear
12:13 PM 15.8 °F 6.1 °F -9.4 °F 32% 30.14 in 10.0 mi NNW 6.9 mph - N/A   Clear
12:33 PM 14.0 °F 3.9 °F -9.4 °F 35% 30.14 in 10.0 mi NNW 6.9 mph - N/A   Clear
12:53 PM 14.0 °F 6.5 °F -7.6 °F 38% 30.14 in 10.0 mi NNW 4.6 mph - N/A   Scattered Clouds
1:13 PM 14.0 °F 2.0 °F -7.6 °F 38% 30.14 in 10.0 mi NNW 9.2 mph - N/A   Clear
1:33 PM 14.0 °F 2.9 °F -7.6 °F 38% 30.14 in 10.0 mi North 8.1 mph - N/A   Clear
1:53 PM 15.8 °F 8.6 °F -7.6 °F 35% 30.14 in 10.0 mi WNW 4.6 mph - N/A   Clear
2:13 PM 14.0 °F 6.5 °F -9.4 °F 35% 30.14 in 10.0 mi North 4.6 mph - N/A   Clear
2:33 PM 15.8 °F 6.1 °F -7.6 °F 35% 30.14 in 10.0 mi NW 6.9 mph - N/A   Clear
2:53 PM 15.8 °F 5.1 °F -7.6 °F 35% 30.14 in 10.0 mi NW 8.1 mph - N/A   Scattered Clouds
3:13 PM 15.8 °F 4.2 °F -7.6 °F 35% 30.14 in 10.0 mi NNW 9.2 mph - N/A   Clear
3:33 PM 14.0 °F 2.9 °F -7.6 °F 38% 30.14 in 10.0 mi NNW 8.1 mph - N/A   Clear
3:53 PM 12.2 °F 1.7 °F -7.6 °F 41% 30.14 in 10.0 mi NW 6.9 mph - N/A   Clear
4:13 PM 12.2 °F 2.9 °F -7.6 °F 41% 30.15 in 10.0 mi NNW 5.8 mph 18.4 mph N/A   Clear
4:33 PM 12.2 °F 1.7 °F -7.6 °F 41% 30.15 in 10.0 mi NW 6.9 mph - N/A   Clear
4:53 PM 8.6 °F -2.6 °F -7.6 °F 48% 30.15 in 10.0 mi NW 6.9 mph - N/A   Clear
5:13 PM 8.6 °F 0.1 °F -7.6 °F 48% 30.16 in 10.0 mi NNW 4.6 mph - N/A   Clear
5:33 PM 6.8 °F - -9.4 °F 48% 30.16 in 10.0 mi Calm Calm - N/A   Clear
5:53 PM 6.8 °F - -7.6 °F 52% 30.16 in 10.0 mi Calm Calm - N/A   Scattered Clouds
6:13 PM 5.0 °F - -5.8 °F 61% 30.16 in 10.0 mi Calm Calm - N/A   Scattered Clouds
6:33 PM - - - N/A% 30.17 in 10.0 mi Calm Calm - N/A   Clear
6:53 PM 1.4 °F - -9.4 °F 61% 30.17 in 10.0 mi Calm Calm - N/A   Clear
7:13 PM -0.4 °F - -9.4 °F 66% 30.17 in 10.0 mi Calm Calm - N/A   Clear
7:33 PM -0.4 °F - -9.4 °F 66% 30.17 in 10.0 mi Calm Calm - N/A   Clear
7:53 PM -2.2 °F - -11.2 °F 66% 30.17 in 10.0 mi Calm Calm - N/A   Clear
8:13 PM -4.0 °F - -13.0 °F 65% 30.16 in 10.0 mi Calm Calm - N/A   Clear
8:33 PM -4.0 °F - -11.2 °F 71% 30.16 in 10.0 mi Calm Calm - N/A   Clear
8:53 PM -4.0 °F -12.4 °F -11.2 °F 71% 30.16 in 10.0 mi WNW 3.5 mph - N/A   Clear
9:13 PM -2.2 °F - -11.2 °F 66% 30.16 in 10.0 mi Calm Calm - N/A   Clear
9:33 PM -4.0 °F - -11.2 °F 71% 30.15 in 10.0 mi Calm Calm - N/A   Clear
9:53 PM -7.6 °F - -14.8 °F 71% 30.15 in 10.0 mi Calm Calm - N/A   Clear
10:13 PM -7.6 °F - -14.8 °F 71% 30.15 in 10.0 mi Calm Calm - N/A   Clear
10:33 PM -9.4 °F - -16.6 °F 71% 30.15 in 10.0 mi Calm Calm - N/A   Clear
10:53 PM -9.4 °F - -16.6 °F 71% 30.15 in 10.0 mi Calm Calm - N/A   Clear
11:13 PM -9.4 °F - -16.6 °F 71% 30.14 in 10.0 mi Calm Calm - N/A   Clear
11:33 PM -9.4 °F - -16.6 °F 71% 30.14 in 10.0 mi Calm Calm - N/A   Clear
11:53 PM -7.6 °F - -16.6 °F 65% 30.14 in 10.0 mi Calm Calm - N/A   Clear